ニオワイズ彗星

C/2020 F3 ( NEOWISE )

English version
Home page
Updated on August 10, 2024

---------------------------------------------------------------------

・ プロフィール

発見日 2020年3月27日
発見光度 17等
発見者 Near-Earth Object Wide-field Infrared Survey Explorer

・ 写真集

・ 軌道要素

Epoch 2021 July 5.0 TT = JDT 2459400.5
T 2020 July 3.65334 TT                                  Rudenko
q   0.2946979            (2000.0)            P               Q
z  +0.0029039      Peri.   37.27802     +0.71859865     +0.14394980
 +/-0.0000023      Node    61.01339     +0.28194565     -0.95463443
e   0.9991442      Incl.  128.94082     +0.63570641     +0.26067520
From 1490 observations 2020 Mar. 27-2021 June 8, mean residual 0".7.

・ 星図

・ 光度変化

        m1 = 3.5 + 5 logΔ + 30   log r  [   ,-66]  (              〜2020年 4月28日)
        m1 = 7.0 + 5 logΔ + 12.0 log r  [-66,  0]  (2020年 4月28日〜2020年 7月 3日)
        m1 = 6.0 + 5 logΔ + 10.0 log r  [  0, 68]  (2020年 7月 3日〜2020年 9月 9日)
        m1 = 5.0 + 5 logΔ + 15.0 log r  [ 68, 95]  (2020年 9月 9日〜2020年10月 6日)
        m1 = 9.0 + 5 logΔ + 15.0 log r  [ 95,   ]  (2020年10月 6日〜              )

---------------------------------------------------------------------

軌道要素はM.P.E.C. 2021-N06に掲載されたものです。
星図はステラナビゲータ Ver.10 (アストロアーツ) で作成したものです。
光度グラフはComet for Windowsで作成したものです。

---------------------------------------------------------------------

Copyright(C) Seiichi Yoshida (comet@aerith.net). All rights reserved.